sat.trackr.live / text

‹ back to catalog

KUIPER-00118

NORAD 65154 · 2025-171Y

PAYLOAD ACTIVE UNKNOWN

§ Identity

Operator
Country
US
Launch date
2025-08-11
Launch site
AFETR
Launch vehicle
Mass (kg)
RCS (m²)

External: N2YO · Heavens-Above · Gunter

§ Orbital elements

Epoch: 2026-05-25T03:15:55.283328Z

Period
97.30 min
Inclination
51.8973°
Eccentricity
0.0000515
Mean motion
14.79985138 rev/d
Perigee alt
629.0 km
Apogee alt
629.7 km
Semi-major
7,007.5 km
B*
2.0199e-4
RAAN
197.5393°
Arg perigee
75.9474°
Mean anomaly
284.1545°
Rev number
4,396

§ Raw data

KUIPER-001181 65154U 25171Y   26145.13605652  .00001321  00000+0  20199-3 0  99932 65154  51.8973 197.5393 0000515  75.9474 284.1545 14.79985138 43966

JSON: /api/v1/satellites/65154 · /tle

For live sub-satellite position, see the globe view (requires WebGL).

§ Visibility from observer

Set your observer location to see the next 7 days of passes ≥ 10°. The values pass through the URL so the page stays shareable.

No JS? Fill the form by hand. The geolocation button needs JavaScript.